Location: Unspecified
(0.0000°N, 0.0000°E)
Time: 20:43:54
(UTC+00:00)

SOHLA-1 (MAIDO-1) - Visible Passes

Search period start: 21 January 2022 00:00
Search period end: 31 January 2022 00:00
Orbit: 649 x 660 km, 98.3° (Epoch: 21 January)

Date Brightness Start Highest point End Pass type
(mag) Time Alt. Az. Time Alt. Az. Time Alt. Az.
21 Jan ? 19:17:45 14° ESE 19:17:45 14° ESE 19:19:14 10° SE visible
21 Jan ? 20:55:38 16° WSW 20:55:38 16° WSW 20:56:56 10° SW visible
22 Jan ? 19:46:03 28° SE 19:46:03 28° SE 19:48:43 10° SSE visible
23 Jan ? 20:14:20 36° S 20:14:20 36° S 20:17:02 10° S visible
24 Jan ? 20:42:39 23° SW 20:42:39 23° SW 20:44:34 10° SW visible
25 Jan ? 19:33:04 20° SE 19:33:04 20° SE 19:35:18 10° SSE visible
25 Jan ? 21:10:57 10° WSW 21:10:57 10° WSW 21:11:00 10° WSW visible
26 Jan ? 20:01:22 34° SSE 20:01:22 34° SSE 20:04:04 10° S visible
27 Jan ? 20:29:40 29° SW 20:29:40 29° SW 20:31:58 10° SSW visible
28 Jan ? 19:20:06 14° ESE 19:20:06 14° ESE 19:21:30 10° SE visible
28 Jan ? 20:57:59 15° WSW 20:57:59 15° WSW 20:59:02 10° SW visible
29 Jan ? 19:48:24 27° SE 19:48:24 27° SE 19:50:54 10° SSE visible
30 Jan ? 20:16:43 32° SSW 20:16:43 32° SSW 20:19:11 10° SSW visible
